When you browse on this site, cookies collect data to enhance your experience and personalize the content and advertising you see.
Visit our Privacy Policy to learn more. By continuing to use the site, you agree to this use of cookies and data.
  • In Portugal
  • List of Countries
  • For 7 days
  • Water Temperature
  • Weather Map
  • Weather Widgets
  • user-avatar
    Login

    Hourly Weather Sydney

    Today, 2 June, Tuesday

    Time Temperature Precipitation Wind Pressure Humidity
    00:00 +9°C° 0 mm 7 mps 758 mmHg 58%
    01:00 +8°C° 0 mm 7 mps 758 mmHg 58%
    02:00 +8°C° 0 mm 7 mps 758 mmHg 59%
    03:00 +8°C° 0 mm 6 mps 758 mmHg 60%
    04:00 +7°C° 0 mm 6 mps 758 mmHg 61%
    05:00 +8°C° 0.1 mm 6 mps 758 mmHg 61%
    06:00 +8°C° 0.1 mm 6 mps 759 mmHg 61%
    07:00 +8°C° 0.1 mm 6 mps 759 mmHg 61%
    08:00 +10°C° 0.4 mm 6 mps 759 mmHg 57%
    09:00 +11°C° 0.4 mm 6 mps 759 mmHg 54%
    10:00 +14°C° 0.4 mm 7 mps 759 mmHg 50%
    11:00 +14°C° 0.2 mm 7 mps 759 mmHg 48%
    12:00 +15°C° 0.2 mm 7 mps 759 mmHg 45%
    13:00 +16°C° 0.2 mm 8 mps 759 mmHg 43%
    14:00 +15°C° 0 mm 7 mps 759 mmHg 45%
    15:00 +15°C° 0 mm 7 mps 760 mmHg 47%
    16:00 +14°C° 0 mm 7 mps 760 mmHg 49%
    17:00 +12°C° 0 mm 7 mps 761 mmHg 53%
    18:00 +11°C° 0 mm 7 mps 761 mmHg 56%
    19:00 +9°C° 0 mm 7 mps 761 mmHg 59%
    20:00 +9°C° 0 mm 7 mps 762 mmHg 61%
    21:00 +9°C° 0 mm 7 mps 762 mmHg 62%
    22:00 +9°C° 0 mm 7 mps 763 mmHg 64%
    23:00 +9°C° 0 mm 7 mps 762 mmHg 65%

    Tomorrow, 3 June, Wednesday

    Time Temperature Precipitation Wind Pressure Humidity
    00:00 +9°C° 0 mm 7 mps 762 mmHg 66%
    01:00 +9°C° 0 mm 7 mps 762 mmHg 67%
    02:00 +9°C° 0 mm 6 mps 762 mmHg 68%
    03:00 +9°C° 0 mm 6 mps 762 mmHg 69%
    04:00 +9°C° 0 mm 6 mps 763 mmHg 70%
    05:00 +9°C° 0 mm 6 mps 763 mmHg 71%
    06:00 +9°C° 0 mm 6 mps 764 mmHg 71%
    07:00 +8°C° 0 mm 6 mps 764 mmHg 72%
    08:00 +10°C° 0 mm 6 mps 765 mmHg 64%
    09:00 +13°C° 0 mm 6 mps 765 mmHg 56%
    10:00 +15°C° 0 mm 6 mps 766 mmHg 49%
    11:00 +16°C° 0 mm 7 mps 766 mmHg 46%
    12:00 +17°C° 0 mm 7 mps 766 mmHg 43%
    13:00 +17°C° 0 mm 8 mps 766 mmHg 41%
    14:00 +16°C° 0 mm 8 mps 766 mmHg 43%
    15:00 +16°C° 0 mm 8 mps 767 mmHg 44%
    16:00 +15°C° 0 mm 8 mps 767 mmHg 46%
    17:00 +13°C° 0 mm 8 mps 768 mmHg 49%
    18:00 +12°C° 0 mm 8 mps 769 mmHg 51%
    19:00 +12°C° 0 mm 8 mps 770 mmHg 53%
    20:00 +11°C° 0.1 mm 7 mps 770 mmHg 54%
    21:00 +11°C° 0.1 mm 7 mps 771 mmHg 55%
    22:00 +10°C° 0.1 mm 7 mps 771 mmHg 56%
    23:00 +9°C° 0 mm 7 mps 771 mmHg 59%

    Day after tomorrow, 4 June, Thursday

    Time Temperature Precipitation Wind Pressure Humidity
    00:00 +9°C° 0 mm 7 mps 771 mmHg 61%
    01:00 +8°C° 0 mm 6 mps 771 mmHg 64%
    02:00 +8°C° 0.1 mm 6 mps 771 mmHg 65%
    03:00 +8°C° 0.1 mm 6 mps 771 mmHg 66%
    04:00 +7°C° 0.1 mm 6 mps 771 mmHg 68%
    05:00 +7°C° 0.1 mm 6 mps 772 mmHg 68%
    06:00 +7°C° 0.1 mm 6 mps 772 mmHg 69%
    07:00 +7°C° 0.1 mm 6 mps 773 mmHg 70%
    08:00 +9°C° 0 mm 6 mps 773 mmHg 65%
    09:00 +10°C° 0 mm 6 mps 773 mmHg 61%
    10:00 +13°C° 0 mm 6 mps 773 mmHg 56%
    11:00 +14°C° 0 mm 6 mps 773 mmHg 55%
    12:00 +15°C° 0 mm 5 mps 772 mmHg 53%
    13:00 +16°C° 0 mm 5 mps 772 mmHg 52%
    14:00 +15°C° 0 mm 5 mps 772 mmHg 55%
    15:00 +15°C° 0 mm 4 mps 772 mmHg 58%
    16:00 +14°C° 0 mm 4 mps 771 mmHg 61%
    17:00 +13°C° 0 mm 4 mps 772 mmHg 66%
    18:00 +12°C° 0 mm 3 mps 772 mmHg 72%
    19:00 +11°C° 0 mm 3 mps 772 mmHg 78%
    20:00 +11°C° 0 mm 3 mps 773 mmHg 80%
    21:00 +10°C° 0 mm 2 mps 773 mmHg 82%
    22:00 +9°C° 0 mm 2 mps 773 mmHg 83%
    23:00 +9°C° 0 mm 2 mps 773 mmHg 84%

    5 June, Friday

    Time Temperature Precipitation Wind Pressure Humidity
    00:00 +9°C° 0 mm 2 mps 772 mmHg 85%
    01:00 +8°C° 0 mm 2 mps 772 mmHg 85%
    02:00 +8°C° 0 mm 3 mps 772 mmHg 86%
    03:00 +8°C° 0 mm 3 mps 771 mmHg 86%
    04:00 +7°C° 0 mm 3 mps 771 mmHg 86%
    05:00 +7°C° 0 mm 3 mps 771 mmHg 85%
    06:00 +7°C° 0 mm 3 mps 772 mmHg 83%
    07:00 +7°C° 0 mm 3 mps 772 mmHg 82%
    08:00 +9°C° 0 mm 2 mps 772 mmHg 73%
    09:00 +12°C° 0 mm 2 mps 772 mmHg 65%
    10:00 +14°C° 0 mm 2 mps 771 mmHg 56%
    11:00 +15°C° 0 mm 2 mps 771 mmHg 51%
    12:00 +18°C° 0 mm 1 mps 770 mmHg 45%
    13:00 +19°C° 0 mm 1 mps 769 mmHg 40%
    14:00 +18°C° 0 mm 2 mps 769 mmHg 41%
    15:00 +18°C° 0 mm 2 mps 769 mmHg 43%
    16:00 +17°C° 0 mm 3 mps 769 mmHg 44%
    17:00 +16°C° 0 mm 2 mps 769 mmHg 55%
    18:00 +14°C° 0 mm 2 mps 769 mmHg 66%
    19:00 +13°C° 0 mm 2 mps 770 mmHg 76%
    20:00 +12°C° 0 mm 2 mps 770 mmHg 75%
    21:00 +12°C° 0 mm 1 mps 770 mmHg 74%
    22:00 +11°C° 0 mm 1 mps 770 mmHg 73%
    23:00 +10°C° 0 mm 2 mps 770 mmHg 71%

    6 June, Saturday

    Time Temperature Precipitation Wind Pressure Humidity
    00:00 +9°C° 0 mm 2 mps 769 mmHg 69%
    01:00 +9°C° 0 mm 2 mps 769 mmHg 68%
    02:00 +9°C° 0 mm 2 mps 769 mmHg 68%
    03:00 +8°C° 0 mm 2 mps 769 mmHg 69%
    04:00 +8°C° 0 mm 2 mps 769 mmHg 70%
    05:00 +8°C° 0 mm 2 mps 769 mmHg 70%
    06:00 +7°C° 0 mm 2 mps 769 mmHg 71%
    07:00 +7°C° 0 mm 2 mps 769 mmHg 71%
    08:00 +9°C° 0 mm 2 mps 769 mmHg 65%
    09:00 +12°C° 0 mm 2 mps 769 mmHg 59%
    10:00 +14°C° 0 mm 2 mps 768 mmHg 53%
    11:00 +16°C° 0 mm 2 mps 768 mmHg 52%
    12:00 +18°C° 0 mm 1 mps 767 mmHg 51%
    13:00 +19°C° 0 mm 1 mps 766 mmHg 49%
    14:00 +19°C° 0 mm 1 mps 766 mmHg 53%
    15:00 +17°C° 0 mm 2 mps 766 mmHg 56%
    16:00 +17°C° 0 mm 2 mps 765 mmHg 59%
    17:00 +16°C° 0 mm 2 mps 766 mmHg 66%
    18:00 +14°C° 0 mm 2 mps 766 mmHg 74%
    19:00 +13°C° 0 mm 2 mps 766 mmHg 82%
    20:00 +13°C° 0 mm 2 mps 766 mmHg 83%
    21:00 +12°C° 0 mm 2 mps 766 mmHg 85%
    22:00 +10°C° 0 mm 2 mps 766 mmHg 87%
    23:00 +10°C° 0.1 mm 2 mps 766 mmHg 86%

    7 June, Sunday

    Time Temperature Precipitation Wind Pressure Humidity
    00:00 +10°C° 0.1 mm 2 mps 766 mmHg 85%
    01:00 +9°C° 0.1 mm 2 mps 766 mmHg 84%
    02:00 +9°C° 0 mm 3 mps 766 mmHg 79%
    03:00 +9°C° 0 mm 3 mps 766 mmHg 74%
    04:00 +8°C° 0 mm 3 mps 765 mmHg 69%
    05:00 +8°C° 0 mm 3 mps 766 mmHg 68%
    06:00 +7°C° 0 mm 4 mps 766 mmHg 68%
    07:00 +7°C° 0 mm 4 mps 766 mmHg 67%
    08:00 +8°C° 0 mm 4 mps 766 mmHg 63%
    09:00 +10°C° 0 mm 5 mps 766 mmHg 60%
    10:00 +13°C° 0 mm 5 mps 766 mmHg 56%
    11:00 +14°C° 0.2 mm 5 mps 766 mmHg 55%
    12:00 +15°C° 0.2 mm 6 mps 766 mmHg 54%
    13:00 +16°C° 0.2 mm 6 mps 765 mmHg 53%
    14:00 +16°C° 0.1 mm 6 mps 765 mmHg 53%
    15:00 +16°C° 0.1 mm 6 mps 766 mmHg 52%
    16:00 +15°C° 0.1 mm 7 mps 766 mmHg 52%
    17:00 +14°C° 0 mm 6 mps 766 mmHg 57%
    18:00 +13°C° 0 mm 6 mps 767 mmHg 61%
    19:00 +11°C° 0 mm 6 mps 768 mmHg 65%
    20:00 +10°C° 0.2 mm 6 mps 768 mmHg 68%
    21:00 +9°C° 0.2 mm 5 mps 768 mmHg 71%
    22:00 +9°C° 0.2 mm 5 mps 769 mmHg 74%
    23:00 +8°C° 0.2 mm 5 mps 769 mmHg 75%
    Show more